Location: Burgberg
(50.1428°N, 11.0671°E)
Time: 04:42:43
(UTC+00:00)

CZ-2C R/B - Pass Details

Date: 26 January 2020
Orbit: 640 x 705 km, 98.4° (Epoch: 26 February)

Event Time Altitude Azimuth Distance (km) Brightness Sun altitude
Rises 06:10:33 0° 172° (S) 3,005 7.5 -7.8°
Reaches altitude 10° 06:12:49 10° 176° (S) 2,086 6.6 -7.5°
Maximum altitude 06:17:19 63° 257° (WSW) 735 3.7 -6.8°
Drops below altitude 10° 06:21:48 10° 340° (NNW) 2,067 5.9 -6.1°
Sets 06:24:02 0° 343° (NNW) 2,975 6.7 -5.8°
